Showing default

IRIDIUM 116, 43072

Orbit data source: Space-Track

IRIDIUM 116, 43072 is a payload satellite owned by Iridium (US) in LEO that was launched on Sat, 23 Dec 2017 UTC via an FALCON 9 launch vehicle from the Air Force Western Test Range (AFWTR). Payloads include a variety of satellites, spacecraft, and rockets equipped with specific instruments for various scientific and technological missions. These include communications satellites like Starlink; space stations such as the ISS; scientific satellites like the Hubble; Earth observation satellites from companies like Planet Labs, Umbra, and HawkEye 360; GPS; miniature CubeSats for education and research; and military/defense satellites.

Loading next visibility...
IRIDIUM 116 details
Identifier
43072, 2017-083C
Orbit
LEO
Last TLE update7 hours ago
Origin
Flag of USIridium (US)
ManufacturerOATK SSG Gilbert
MissionOperational Commercial Communications
Bus & MotorELITEBUS, Unknown motor
Mass860 kg wet, 700 kg dry
Launch date (UTC)
2017-12-23 (7 years ago)
Launch vehicle
FALCON 9
Launch site
Air Force Western Test Range (AFWTR)
Object type
Payload
Rocket body
Debris
Shape & HBRTrap Box + 2 Pan, 9.4 m
Radar Cross Section14.423 m², Large (>1 m²)

Expand to show TLE details & history

TLE from 7 hours ago
0 IRIDIUM 116
1 43072U 17083C   24348.11346216  .00000267  00000-0  88329-4 0  9999
2 43072  86.3992 192.3104 0001818  91.0210 269.1194 14.34216802365182
Epoch: 2024-12-13T02:43Z
Definitive object data (Epoch: 2024-12-13T02:43:23.13Z)
Latitude-0.00004°
Longitude69.17992°
Altitude780.742 km
Speed7.463 km/s
True Right ascension12h 49m 14s
True Declination0° 00' 00"
Sunlit
Object was in daylight at TLE epoch
Visualization TLE readout
Latitude1.88826°
Longitude69.18144°
Altitude780.452 km
Speed7.464 km/s
Apparent Right ascension15h 26m 02s
Apparent Declination-27° 18' 42"
Sunlit
Object is in daylight
Visualization observer readout
Local Sidereal Time07:55:32
Azimuth99.184° ESE
Elevation-33.819°
Doppler factor1
Orbital elements
Apogee altitude775.935 km
Perigee altitude773.334 km
Semi-major axis7,152.772 km
Eccentricity0.0001818
Inclination86.3992°
RAAN192.3104°
Arg. of periapsis91.021°
True anomaly269.09857°
Mean anomaly269.1194°
Eccentric anomaly269.10898°
Mean motion3.58783 °/min
BSTAR0.000088329
Orbital period100.34 mins
Loading maneuver chart data...
Loading historical data...
Loading historical data...
Loading historical data...
Loading historical data...
Loading historical data...
Loading historical data...
Loading historical data...

IRIDIUM 116 Visibility forecast

Observer location: undefined°, undefined

Span
Click to sort rows by Start time (UTC) header in descending order
Start Az.
Max El. time (UTC)
Max El. Az.
Max El.
End time (UTC)
End Az.
9 mins2024-12-13 14:33:46.628Z188.237° SSW2024-12-13 14:37:46.628Z269.701° W44.16°2024-12-13 14:42:46.628Z359.056° N
6 mins2024-12-14 01:05:46.628Z39.646° NE2024-12-14 01:07:46.628Z71.872° E24.19°2024-12-14 01:11:46.628Z131.413° SE
7 mins2024-12-14 02:45:46.628Z327.176° NNW2024-12-14 02:48:46.628Z277.56° WNW28.103°2024-12-14 02:52:46.628Z217.721° SW
|